Year,Month,Day,Hour,Minute,Value (Times are PST for temperature in C)
2014,08,27,00,00,19.80
2014,08,27,00,01,19.80
2014,08,27,00,02,19.80
2014,08,27,00,03,19.80
2014,08,27,00,04,19.80
2014,08,27,00,05,19.80
2014,08,27,00,06,19.80
2014,08,27,00,07,19.80
2014,08,27,00,08,19.80
2014,08,27,00,09,19.80
2014,08,27,00,10,19.70
2014,08,27,00,11,19.70
2014,08,27,00,12,19.70
2014,08,27,00,13,19.70
2014,08,27,00,14,19.70
2014,08,27,00,15,19.70
2014,08,27,00,16,19.70
2014,08,27,00,17,19.70
2014,08,27,00,18,19.70
2014,08,27,00,19,19.60
2014,08,27,00,20,19.60
2014,08,27,00,21,19.60
2014,08,27,00,22,19.60
2014,08,27,00,23,19.60
2014,08,27,00,24,19.60
2014,08,27,00,25,19.60
2014,08,27,00,26,19.60
2014,08,27,00,27,19.60
2014,08,27,00,28,19.60
2014,08,27,00,29,19.60
2014,08,27,00,30,19.60
2014,08,27,00,31,19.60
2014,08,27,00,32,19.60
2014,08,27,00,33,19.60
2014,08,27,00,34,19.60
2014,08,27,00,35,19.60
2014,08,27,00,36,19.50
2014,08,27,00,37,19.50
2014,08,27,00,38,19.50
2014,08,27,00,39,19.50
2014,08,27,00,40,19.40
2014,08,27,00,41,19.40
2014,08,27,00,42,19.40
2014,08,27,00,43,19.40
2014,08,27,00,44,19.40
2014,08,27,00,45,19.40
2014,08,27,00,46,19.40
2014,08,27,00,47,19.30
2014,08,27,00,48,19.30
2014,08,27,00,49,19.30
2014,08,27,00,50,19.30
2014,08,27,00,51,19.30
2014,08,27,00,52,19.30
2014,08,27,00,53,19.30
2014,08,27,00,54,19.20
2014,08,27,00,55,19.20
2014,08,27,00,56,19.20
2014,08,27,00,57,19.20
2014,08,27,00,58,19.20
2014,08,27,00,59,19.20
2014,08,27,01,00,19.20
2014,08,27,01,01,19.20
2014,08,27,01,02,19.10
2014,08,27,01,03,19.20
2014,08,27,01,04,19.10
2014,08,27,01,05,19.10
2014,08,27,01,06,19.10
2014,08,27,01,07,19.10
2014,08,27,01,08,19.10
2014,08,27,01,09,19.10
2014,08,27,01,10,19.10
2014,08,27,01,11,19.10
2014,08,27,01,12,19.10
2014,08,27,01,13,19.10
2014,08,27,01,14,19.10
2014,08,27,01,15,19.10
2014,08,27,01,16,19.10
2014,08,27,01,17,19.10
2014,08,27,01,18,19.10
2014,08,27,01,19,19.10
2014,08,27,01,20,19.10
2014,08,27,01,21,19.10
2014,08,27,01,22,19.10
2014,08,27,01,23,19.10
2014,08,27,01,24,19.10
2014,08,27,01,25,19.00
2014,08,27,01,26,19.00
2014,08,27,01,27,19.00
2014,08,27,01,28,19.00
2014,08,27,01,29,18.90
2014,08,27,01,30,18.90
2014,08,27,01,31,18.90
2014,08,27,01,32,18.90
2014,08,27,01,33,18.90
2014,08,27,01,34,18.80
2014,08,27,01,35,18.80
2014,08,27,01,36,18.80
2014,08,27,01,37,18.80
2014,08,27,01,38,18.80
2014,08,27,01,39,18.80
2014,08,27,01,40,18.80
2014,08,27,01,41,18.80
2014,08,27,01,42,18.70
2014,08,27,01,43,18.70
2014,08,27,01,44,18.70
2014,08,27,01,45,18.70
2014,08,27,01,46,18.70
2014,08,27,01,47,18.70
2014,08,27,01,48,18.70
2014,08,27,01,49,18.60
2014,08,27,01,50,18.60
2014,08,27,01,51,18.60
2014,08,27,01,52,18.60
2014,08,27,01,53,18.60
2014,08,27,01,54,18.60
2014,08,27,01,55,18.50
2014,08,27,01,56,18.50
2014,08,27,01,57,18.50
2014,08,27,01,58,18.50
2014,08,27,01,59,18.40
2014,08,27,02,00,18.40
2014,08,27,02,01,18.40
2014,08,27,02,02,18.30
2014,08,27,02,03,18.30
2014,08,27,02,04,18.30
2014,08,27,02,05,18.30
2014,08,27,02,06,18.30
2014,08,27,02,07,18.30
2014,08,27,02,08,18.20
2014,08,27,02,09,18.20
2014,08,27,02,10,18.20
2014,08,27,02,11,18.20
2014,08,27,02,12,18.20
2014,08,27,02,13,18.20
2014,08,27,02,14,18.20
2014,08,27,02,15,18.20
2014,08,27,02,16,18.20
2014,08,27,02,17,18.20
2014,08,27,02,18,18.20
2014,08,27,02,19,18.20
2014,08,27,02,20,18.20
2014,08,27,02,21,18.10
2014,08,27,02,22,18.10
2014,08,27,02,23,18.10
2014,08,27,02,24,18.10
2014,08,27,02,25,18.10
2014,08,27,02,26,18.10
2014,08,27,02,27,18.10
2014,08,27,02,28,18.10
2014,08,27,02,29,18.20
2014,08,27,02,30,18.20
2014,08,27,02,31,18.10
2014,08,27,02,32,18.10
2014,08,27,02,33,18.10
2014,08,27,02,34,18.10
2014,08,27,02,35,18.10
2014,08,27,02,36,18.10
2014,08,27,02,37,18.10
2014,08,27,02,38,18.10
2014,08,27,02,39,18.10
2014,08,27,02,40,18.10
2014,08,27,02,41,18.10
2014,08,27,02,42,18.10
2014,08,27,02,43,18.10
2014,08,27,02,44,18.10
2014,08,27,02,45,18.10
2014,08,27,02,46,18.00
2014,08,27,02,47,18.00
2014,08,27,02,48,18.00
2014,08,27,02,49,18.00
2014,08,27,02,50,17.90
2014,08,27,02,51,17.90
2014,08,27,02,52,17.90
2014,08,27,02,53,17.90
2014,08,27,02,54,17.90
2014,08,27,02,55,17.90
2014,08,27,02,56,17.90
2014,08,27,02,57,17.80
2014,08,27,02,58,17.80
2014,08,27,02,59,17.80
2014,08,27,03,00,17.80
2014,08,27,03,01,17.80
2014,08,27,03,02,17.80
2014,08,27,03,03,17.80
2014,08,27,03,04,17.80
2014,08,27,03,05,17.80
2014,08,27,03,06,17.80
2014,08,27,03,07,17.80
2014,08,27,03,08,17.80
2014,08,27,03,09,17.80
2014,08,27,03,10,17.80
2014,08,27,03,11,17.80
2014,08,27,03,12,17.80
2014,08,27,03,13,17.80
2014,08,27,03,14,17.70
2014,08,27,03,15,17.70
2014,08,27,03,16,17.70
2014,08,27,03,17,17.70
2014,08,27,03,18,17.70
2014,08,27,03,19,17.70
2014,08,27,03,20,17.60
2014,08,27,03,21,17.60
2014,08,27,03,22,17.60
2014,08,27,03,23,17.60
2014,08,27,03,24,17.60
2014,08,27,03,25,17.60
2014,08,27,03,26,17.60
2014,08,27,03,27,17.60
2014,08,27,03,28,17.50
2014,08,27,03,29,17.50
2014,08,27,03,30,17.50
2014,08,27,03,31,17.50
2014,08,27,03,32,17.50
2014,08,27,03,33,17.50
2014,08,27,03,34,17.50
2014,08,27,03,35,17.50
2014,08,27,03,36,17.40
2014,08,27,03,37,17.40
2014,08,27,03,38,17.40
2014,08,27,03,39,17.40
2014,08,27,03,40,17.40
2014,08,27,03,41,17.40
2014,08,27,03,42,17.40
2014,08,27,03,43,17.40
2014,08,27,03,44,17.40
2014,08,27,03,45,17.40
2014,08,27,03,46,17.40
2014,08,27,03,47,17.40
2014,08,27,03,48,17.40
2014,08,27,03,49,17.40
2014,08,27,03,50,17.40
2014,08,27,03,51,17.40
2014,08,27,03,52,17.40
2014,08,27,03,53,17.40
2014,08,27,03,54,17.40
2014,08,27,03,55,17.40
2014,08,27,03,56,17.40
2014,08,27,03,57,17.40
2014,08,27,03,58,17.40
2014,08,27,03,59,17.40
2014,08,27,04,00,17.40
2014,08,27,04,01,17.40
2014,08,27,04,02,17.30
2014,08,27,04,03,17.30
2014,08,27,04,04,17.30
2014,08,27,04,05,17.30
2014,08,27,04,06,17.30
2014,08,27,04,07,17.30
2014,08,27,04,08,17.30
2014,08,27,04,09,17.30
2014,08,27,04,10,17.20
2014,08,27,04,11,17.20
2014,08,27,04,12,17.20
2014,08,27,04,13,17.20
2014,08,27,04,14,17.20
2014,08,27,04,15,17.20
2014,08,27,04,16,17.10
2014,08,27,04,17,17.10
2014,08,27,04,18,17.10
2014,08,27,04,19,17.10
2014,08,27,04,20,17.10
2014,08,27,04,21,17.10
2014,08,27,04,22,17.10
2014,08,27,04,23,17.00
2014,08,27,04,24,17.00
2014,08,27,04,25,17.00
2014,08,27,04,26,17.00
2014,08,27,04,27,17.00
2014,08,27,04,28,17.00
2014,08,27,04,29,17.00
2014,08,27,04,30,17.00
2014,08,27,04,31,17.00
2014,08,27,04,32,17.00
2014,08,27,04,33,17.00
2014,08,27,04,34,17.00
2014,08,27,04,35,17.00
2014,08,27,04,36,17.00
2014,08,27,04,37,17.00
2014,08,27,04,38,17.00
2014,08,27,04,39,17.00
2014,08,27,04,40,17.00
2014,08,27,04,41,16.90
2014,08,27,04,42,16.90
2014,08,27,04,43,16.90
2014,08,27,04,44,16.90
2014,08,27,04,45,16.90
2014,08,27,04,46,16.90
2014,08,27,04,47,16.90
2014,08,27,04,48,16.90
2014,08,27,04,49,16.90
2014,08,27,04,50,16.90
2014,08,27,04,51,16.90
2014,08,27,04,52,16.90
2014,08,27,04,53,16.90
2014,08,27,04,54,16.90
2014,08,27,04,55,17.00
2014,08,27,04,56,17.00
2014,08,27,04,57,16.90
2014,08,27,04,58,16.90
2014,08,27,04,59,16.90
2014,08,27,05,00,16.90
2014,08,27,05,01,16.90
2014,08,27,05,02,16.90
2014,08,27,05,03,16.90
2014,08,27,05,04,16.90
2014,08,27,05,05,16.90
2014,08,27,05,06,16.90
2014,08,27,05,07,16.90
2014,08,27,05,08,16.90
2014,08,27,05,09,16.90
2014,08,27,05,10,16.90
2014,08,27,05,11,16.90
2014,08,27,05,12,16.80
2014,08,27,05,13,16.80
2014,08,27,05,14,16.80
2014,08,27,05,15,16.80
2014,08,27,05,16,16.80
2014,08,27,05,17,16.80
2014,08,27,05,18,16.80
2014,08,27,05,19,16.70
2014,08,27,05,20,16.70
2014,08,27,05,21,16.70
2014,08,27,05,22,16.70
2014,08,27,05,23,16.70
2014,08,27,05,24,16.70
2014,08,27,05,25,16.70
2014,08,27,05,26,16.70
2014,08,27,05,27,16.70
2014,08,27,05,28,16.70
2014,08,27,05,29,16.70
2014,08,27,05,30,16.70
2014,08,27,05,31,16.60
2014,08,27,05,32,16.60
2014,08,27,05,33,16.60
2014,08,27,05,34,16.60
2014,08,27,05,35,16.60
2014,08,27,05,36,16.60
2014,08,27,05,37,16.60
2014,08,27,05,38,16.50
2014,08,27,05,39,16.50
2014,08,27,05,40,16.50
2014,08,27,05,41,16.40
2014,08,27,05,42,16.40
2014,08,27,05,43,16.40
2014,08,27,05,44,16.40
2014,08,27,05,45,16.40
2014,08,27,05,46,16.30
2014,08,27,05,47,16.30
2014,08,27,05,48,16.30
2014,08,27,05,49,16.30
2014,08,27,05,50,16.30
2014,08,27,05,51,16.30
2014,08,27,05,52,16.30
2014,08,27,05,53,16.30
2014,08,27,05,54,16.20
2014,08,27,05,55,16.20
2014,08,27,05,56,16.20
2014,08,27,05,57,16.20
2014,08,27,05,58,16.20
2014,08,27,05,59,16.10
2014,08,27,06,00,16.10
2014,08,27,06,01,16.10
2014,08,27,06,02,16.10
2014,08,27,06,03,16.10
2014,08,27,06,04,16.10
2014,08,27,06,05,16.10
2014,08,27,06,06,16.10
2014,08,27,06,07,16.10
2014,08,27,06,08,16.00
2014,08,27,06,09,16.00
2014,08,27,06,10,16.00
2014,08,27,06,11,16.00
2014,08,27,06,12,16.00
2014,08,27,06,13,16.00
2014,08,27,06,14,16.00
2014,08,27,06,15,16.00
2014,08,27,06,16,15.90
2014,08,27,06,17,15.90
2014,08,27,06,18,15.90
2014,08,27,06,19,15.90
2014,08,27,06,20,15.90
2014,08,27,06,21,15.90
2014,08,27,06,22,15.90
2014,08,27,06,23,15.90
2014,08,27,06,24,15.90
2014,08,27,06,25,15.90
2014,08,27,06,26,15.90
2014,08,27,06,27,15.90
2014,08,27,06,28,15.90
2014,08,27,06,29,15.90
2014,08,27,06,30,15.90
2014,08,27,06,31,15.90
2014,08,27,06,32,15.90
2014,08,27,06,33,15.90
2014,08,27,06,34,15.90
2014,08,27,06,35,15.90
2014,08,27,06,36,15.90
2014,08,27,06,37,15.90
2014,08,27,06,38,15.90
2014,08,27,06,39,15.90
2014,08,27,06,40,15.90
2014,08,27,06,41,15.90
2014,08,27,06,42,15.90
2014,08,27,06,43,15.90
2014,08,27,06,44,15.90
2014,08,27,06,45,15.90
2014,08,27,06,46,15.90
2014,08,27,06,47,15.90
2014,08,27,06,48,15.90
2014,08,27,06,49,15.90
2014,08,27,06,50,15.80
2014,08,27,06,51,15.80
2014,08,27,06,52,15.90
2014,08,27,06,53,15.80
2014,08,27,06,54,15.80
2014,08,27,06,55,15.80
2014,08,27,06,56,15.90
2014,08,27,06,57,15.90
2014,08,27,06,58,15.90
2014,08,27,06,59,15.90
2014,08,27,07,00,15.90
2014,08,27,07,01,15.90
2014,08,27,07,02,15.90
2014,08,27,07,03,15.90
2014,08,27,07,04,15.90
2014,08,27,07,05,15.90
2014,08,27,07,06,16.00
2014,08,27,07,07,16.00
2014,08,27,07,08,16.00
2014,08,27,07,09,16.00
2014,08,27,07,10,16.00
2014,08,27,07,11,16.00
2014,08,27,07,12,16.00
2014,08,27,07,13,16.00
2014,08,27,07,14,16.10
2014,08,27,07,15,16.10
2014,08,27,07,16,16.10
2014,08,27,07,17,16.10
2014,08,27,07,18,16.10
2014,08,27,07,19,16.10
2014,08,27,07,20,16.10
2014,08,27,07,21,16.10
2014,08,27,07,22,16.20
2014,08,27,07,23,16.20
2014,08,27,07,24,16.20
2014,08,27,07,25,16.20
2014,08,27,07,26,16.20
2014,08,27,07,27,16.20
2014,08,27,07,28,16.20
2014,08,27,07,29,16.20
2014,08,27,07,30,16.20
2014,08,27,07,31,16.20
2014,08,27,07,32,16.20
2014,08,27,07,33,16.20
2014,08,27,07,34,16.30
2014,08,27,07,35,16.30
2014,08,27,07,36,16.30
2014,08,27,07,37,16.30
2014,08,27,07,38,16.30
2014,08,27,07,39,16.30
2014,08,27,07,40,16.30
2014,08,27,07,41,16.30
2014,08,27,07,42,16.40
2014,08,27,07,43,16.40
2014,08,27,07,44,16.40
2014,08,27,07,45,16.40
2014,08,27,07,46,16.40
2014,08,27,07,47,16.50
2014,08,27,07,48,16.50
2014,08,27,07,49,16.50
2014,08,27,07,50,16.50
2014,08,27,07,51,16.60
2014,08,27,07,52,16.60
2014,08,27,07,53,16.60
2014,08,27,07,54,16.60
2014,08,27,07,55,16.60
2014,08,27,07,56,16.60
2014,08,27,07,57,16.70
2014,08,27,07,58,16.70
2014,08,27,07,59,16.70
2014,08,27,08,00,16.70
2014,08,27,08,01,16.80
2014,08,27,08,02,16.80
2014,08,27,08,03,16.80
2014,08,27,08,04,16.90
2014,08,27,08,05,16.90
2014,08,27,08,06,16.90
2014,08,27,08,07,17.00
2014,08,27,08,08,17.00
2014,08,27,08,09,17.10
2014,08,27,08,10,17.10
2014,08,27,08,11,17.10
2014,08,27,08,12,17.10
2014,08,27,08,13,17.20
2014,08,27,08,14,17.20
2014,08,27,08,15,17.20
2014,08,27,08,16,17.30
2014,08,27,08,17,17.30
2014,08,27,08,18,17.40
2014,08,27,08,19,17.40
2014,08,27,08,20,17.40
2014,08,27,08,21,17.40
2014,08,27,08,22,17.50
2014,08,27,08,23,17.50
2014,08,27,08,24,17.60
2014,08,27,08,25,17.60
2014,08,27,08,26,17.60
2014,08,27,08,27,17.70
2014,08,27,08,28,17.80
2014,08,27,08,29,17.80
2014,08,27,08,30,17.80
2014,08,27,08,31,17.90
2014,08,27,08,32,17.90
2014,08,27,08,33,17.90
2014,08,27,08,34,18.00
2014,08,27,08,35,18.10
2014,08,27,08,36,18.10
2014,08,27,08,37,18.20
2014,08,27,08,38,18.20
2014,08,27,08,39,18.20
2014,08,27,08,40,18.30
2014,08,27,08,41,18.30
2014,08,27,08,42,18.40
2014,08,27,08,43,18.40
2014,08,27,08,44,18.50
2014,08,27,08,45,18.50
2014,08,27,08,46,18.60
2014,08,27,08,47,18.60
2014,08,27,08,48,18.70
2014,08,27,08,49,18.80
2014,08,27,08,50,18.90
2014,08,27,08,51,18.90
2014,08,27,08,52,19.00
2014,08,27,08,53,19.10
2014,08,27,08,54,19.20
2014,08,27,08,55,19.30
2014,08,27,08,56,19.40
2014,08,27,08,57,19.40
2014,08,27,08,58,19.50
2014,08,27,08,59,19.60
2014,08,27,09,00,19.70
2014,08,27,09,01,19.80
2014,08,27,09,02,19.90
2014,08,27,09,03,20.00
2014,08,27,09,04,20.10
2014,08,27,09,05,20.20
2014,08,27,09,06,20.30
2014,08,27,09,07,20.40
2014,08,27,09,08,20.50
2014,08,27,09,09,20.60
2014,08,27,09,10,20.70
2014,08,27,09,11,20.80
2014,08,27,09,12,20.90
2014,08,27,09,13,21.00
2014,08,27,09,14,21.00
2014,08,27,09,15,21.10
2014,08,27,09,16,21.20
2014,08,27,09,17,21.20
2014,08,27,09,18,21.30
2014,08,27,09,19,21.30
2014,08,27,09,20,21.40
2014,08,27,09,21,21.40
2014,08,27,09,22,21.40
2014,08,27,09,23,21.50
2014,08,27,09,24,21.50
2014,08,27,09,25,21.50
2014,08,27,09,26,21.60
2014,08,27,09,27,21.60
2014,08,27,09,28,21.70
2014,08,27,09,29,21.70
2014,08,27,09,30,21.70
2014,08,27,09,31,21.80
2014,08,27,09,32,21.80
2014,08,27,09,33,21.80
2014,08,27,09,34,21.80
2014,08,27,09,35,21.90
2014,08,27,09,36,21.90
2014,08,27,09,37,21.90
2014,08,27,09,38,22.00
2014,08,27,09,39,22.10
2014,08,27,09,40,22.10
2014,08,27,09,41,22.20
2014,08,27,09,42,22.30
2014,08,27,09,43,22.30
2014,08,27,09,44,22.30
2014,08,27,09,45,22.40
2014,08,27,09,46,22.40
2014,08,27,09,47,22.40
2014,08,27,09,48,22.50
2014,08,27,09,49,22.50
2014,08,27,09,50,22.60
2014,08,27,09,51,22.60
2014,08,27,09,52,22.70
2014,08,27,09,53,22.70
2014,08,27,09,54,22.80
2014,08,27,09,55,22.80
2014,08,27,09,56,22.90
2014,08,27,09,57,22.90
2014,08,27,09,58,23.00
2014,08,27,09,59,23.00
2014,08,27,10,00,23.10
2014,08,27,10,01,23.20
2014,08,27,10,02,23.20
2014,08,27,10,03,23.30
2014,08,27,10,04,23.40
2014,08,27,10,05,23.40
2014,08,27,10,06,23.50
2014,08,27,10,07,23.60
2014,08,27,10,08,23.70
2014,08,27,10,09,23.70
2014,08,27,10,10,23.80
2014,08,27,10,11,23.80
2014,08,27,10,12,23.80
2014,08,27,10,13,23.80
2014,08,27,10,14,23.80
2014,08,27,10,15,23.90
2014,08,27,10,16,23.90
2014,08,27,10,17,23.90
2014,08,27,10,18,24.00
2014,08,27,10,19,24.00
2014,08,27,10,20,24.10
2014,08,27,10,21,24.10
2014,08,27,10,22,24.20
2014,08,27,10,23,24.20
2014,08,27,10,24,24.30
2014,08,27,10,25,24.40
2014,08,27,10,26,24.50
2014,08,27,10,27,24.50
2014,08,27,10,28,24.50
2014,08,27,10,29,24.50
2014,08,27,10,30,24.50
2014,08,27,10,31,24.60
2014,08,27,10,32,24.60
2014,08,27,10,33,24.60
2014,08,27,10,34,24.60
2014,08,27,10,35,24.60
2014,08,27,10,36,24.60
2014,08,27,10,37,24.60
2014,08,27,10,38,24.60
2014,08,27,10,39,24.50
2014,08,27,10,40,24.50
2014,08,27,10,41,24.50
2014,08,27,10,42,24.40
2014,08,27,10,43,24.40
2014,08,27,10,44,24.30
2014,08,27,10,45,24.30
2014,08,27,10,46,24.30
2014,08,27,10,47,24.40
2014,08,27,10,48,24.40
2014,08,27,10,49,24.40
2014,08,27,10,50,24.40
2014,08,27,10,51,24.40
2014,08,27,10,52,24.50
2014,08,27,10,53,24.50
2014,08,27,10,54,24.50
2014,08,27,10,55,24.60
2014,08,27,10,56,24.60
2014,08,27,10,57,24.70
2014,08,27,10,58,24.70
2014,08,27,10,59,24.80
2014,08,27,11,00,24.80
2014,08,27,11,01,24.80
2014,08,27,11,02,24.80
2014,08,27,11,03,24.70
2014,08,27,11,04,24.70
2014,08,27,11,05,24.60
2014,08,27,11,06,24.60
2014,08,27,11,07,24.60
2014,08,27,11,08,24.60
2014,08,27,11,09,24.50
2014,08,27,11,10,24.50
2014,08,27,11,11,24.50
2014,08,27,11,12,24.50
2014,08,27,11,13,24.50
2014,08,27,11,14,24.60
2014,08,27,11,15,24.60
2014,08,27,11,16,24.70
2014,08,27,11,17,24.80
2014,08,27,11,18,24.90
2014,08,27,11,19,24.90
2014,08,27,11,20,25.00
2014,08,27,11,21,25.00
2014,08,27,11,22,25.10
2014,08,27,11,23,25.10
2014,08,27,11,24,25.00
2014,08,27,11,25,25.00
2014,08,27,11,26,24.90
2014,08,27,11,27,24.90
2014,08,27,11,28,24.90
2014,08,27,11,29,24.90
2014,08,27,11,30,24.90
2014,08,27,11,31,25.00
2014,08,27,11,32,25.00
2014,08,27,11,33,25.00
2014,08,27,11,34,25.10
2014,08,27,11,35,25.20
2014,08,27,11,36,25.20
2014,08,27,11,37,25.30
2014,08,27,11,38,25.30
2014,08,27,11,39,25.30
2014,08,27,11,40,25.30
2014,08,27,11,41,25.40
2014,08,27,11,42,25.40
2014,08,27,11,43,25.40
2014,08,27,11,44,25.50
2014,08,27,11,45,25.50
2014,08,27,11,46,25.60
2014,08,27,11,47,25.60
2014,08,27,11,48,25.70
2014,08,27,11,49,25.70
2014,08,27,11,50,25.80
2014,08,27,11,51,25.80
2014,08,27,11,52,25.90
2014,08,27,11,53,25.90
2014,08,27,11,54,25.90
2014,08,27,11,55,25.90
2014,08,27,11,56,25.90
2014,08,27,11,57,25.80
2014,08,27,11,58,25.80
2014,08,27,11,59,25.70
2014,08,27,12,00,25.60
2014,08,27,12,01,25.60
2014,08,27,12,02,25.50
2014,08,27,12,03,25.50
2014,08,27,12,04,25.40
2014,08,27,12,05,25.30
2014,08,27,12,06,25.30
2014,08,27,12,07,25.20
2014,08,27,12,08,25.10
2014,08,27,12,09,25.10
2014,08,27,12,10,25.10
2014,08,27,12,11,25.10
2014,08,27,12,12,25.10
2014,08,27,12,13,25.10
2014,08,27,12,14,25.20
2014,08,27,12,15,25.20
2014,08,27,12,16,25.30
2014,08,27,12,17,25.30
2014,08,27,12,18,25.30
2014,08,27,12,19,25.40
2014,08,27,12,20,25.40
2014,08,27,12,21,25.50
2014,08,27,12,22,25.60
2014,08,27,12,23,25.60
2014,08,27,12,24,25.70
2014,08,27,12,25,25.70
2014,08,27,12,26,25.70
2014,08,27,12,27,25.70
2014,08,27,12,28,25.60
2014,08,27,12,29,25.50
2014,08,27,12,30,25.50
2014,08,27,12,31,25.40
2014,08,27,12,32,25.30
2014,08,27,12,33,25.40
2014,08,27,12,34,25.40
2014,08,27,12,35,25.40
2014,08,27,12,36,25.40
2014,08,27,12,37,25.50
2014,08,27,12,38,25.50
2014,08,27,12,39,25.60
2014,08,27,12,40,25.60
2014,08,27,12,41,25.60
2014,08,27,12,42,25.60
2014,08,27,12,43,25.70
2014,08,27,12,44,25.70
2014,08,27,12,45,25.70
2014,08,27,12,46,25.80
2014,08,27,12,47,25.80
2014,08,27,12,48,25.90
2014,08,27,12,49,25.90
2014,08,27,12,50,26.00
2014,08,27,12,51,26.10
2014,08,27,12,52,26.00
2014,08,27,12,53,25.90
2014,08,27,12,54,25.90
2014,08,27,12,55,25.90
2014,08,27,12,56,25.90
2014,08,27,12,57,25.80
2014,08,27,12,58,25.80
2014,08,27,12,59,25.70
2014,08,27,13,00,25.60
2014,08,27,13,01,25.60
2014,08,27,13,02,25.60
2014,08,27,13,03,25.60
2014,08,27,13,04,25.60
2014,08,27,13,05,25.60
2014,08,27,13,06,25.60
2014,08,27,13,07,25.60
2014,08,27,13,08,25.60
2014,08,27,13,09,25.60
2014,08,27,13,10,25.60
2014,08,27,13,11,25.60
2014,08,27,13,12,25.50
2014,08,27,13,13,25.50
2014,08,27,13,14,25.60
2014,08,27,13,15,25.60
2014,08,27,13,16,25.70
2014,08,27,13,17,25.70
2014,08,27,13,18,25.70
2014,08,27,13,19,25.70
2014,08,27,13,20,25.70
2014,08,27,13,21,25.60
2014,08,27,13,22,25.60
2014,08,27,13,23,25.50
2014,08,27,13,24,25.50
2014,08,27,13,25,25.40
2014,08,27,13,26,25.40
2014,08,27,13,27,25.40
2014,08,27,13,28,25.50
2014,08,27,13,29,25.50
2014,08,27,13,30,25.50
2014,08,27,13,31,25.50
2014,08,27,13,32,25.40
2014,08,27,13,33,25.40
2014,08,27,13,34,25.50
2014,08,27,13,35,25.50
2014,08,27,13,36,25.50
2014,08,27,13,37,25.50
2014,08,27,13,38,25.40
2014,08,27,13,39,25.40
2014,08,27,13,40,25.30
2014,08,27,13,41,25.40
2014,08,27,13,42,25.40
2014,08,27,13,43,25.50
2014,08,27,13,44,25.60
2014,08,27,13,45,25.60
2014,08,27,13,46,25.70
2014,08,27,13,47,25.70
2014,08,27,13,48,25.80
2014,08,27,13,49,25.80
2014,08,27,13,50,25.90
2014,08,27,13,51,26.00
2014,08,27,13,52,26.10
2014,08,27,13,53,26.20
2014,08,27,13,54,26.40
2014,08,27,13,55,26.40
2014,08,27,13,56,26.50
2014,08,27,13,57,26.50
2014,08,27,13,58,26.60
2014,08,27,13,59,26.70
2014,08,27,14,00,26.80
2014,08,27,14,01,26.90
2014,08,27,14,02,27.00
2014,08,27,14,03,27.00
2014,08,27,14,04,27.10
2014,08,27,14,05,27.10
2014,08,27,14,06,27.10
2014,08,27,14,07,27.10
2014,08,27,14,08,27.00
2014,08,27,14,09,27.00
2014,08,27,14,10,27.00
2014,08,27,14,11,27.00
2014,08,27,14,12,27.00
2014,08,27,14,13,27.10
2014,08,27,14,14,27.10
2014,08,27,14,15,27.20
2014,08,27,14,16,27.20
2014,08,27,14,17,27.30
2014,08,27,14,18,27.40
2014,08,27,14,19,27.40
2014,08,27,14,20,27.40
2014,08,27,14,21,27.40
2014,08,27,14,22,27.40
2014,08,27,14,23,27.50
2014,08,27,14,24,27.40
2014,08,27,14,25,27.30
2014,08,27,14,26,27.30
2014,08,27,14,27,27.30
2014,08,27,14,28,27.30
2014,08,27,14,29,27.30
2014,08,27,14,30,27.30
2014,08,27,14,31,27.30
2014,08,27,14,32,27.30
2014,08,27,14,33,27.30
2014,08,27,14,34,27.20
2014,08,27,14,35,27.20
2014,08,27,14,36,27.20
2014,08,27,14,37,27.20
2014,08,27,14,38,27.20
2014,08,27,14,39,27.30
2014,08,27,14,40,27.30
2014,08,27,14,41,27.30
2014,08,27,14,42,27.40
2014,08,27,14,43,27.30
2014,08,27,14,44,27.30
2014,08,27,14,45,27.30
2014,08,27,14,46,27.30
2014,08,27,14,47,27.20
2014,08,27,14,48,27.10
2014,08,27,14,49,27.00
2014,08,27,14,50,26.90
2014,08,27,14,51,26.80
2014,08,27,14,52,26.80
2014,08,27,14,53,26.70
2014,08,27,14,54,26.70
2014,08,27,14,55,26.70
2014,08,27,14,56,26.60
2014,08,27,14,57,26.40
2014,08,27,14,58,26.30
2014,08,27,14,59,26.20
2014,08,27,15,00,26.20
2014,08,27,15,01,26.20
2014,08,27,15,02,26.30
2014,08,27,15,03,26.30
2014,08,27,15,04,26.40
2014,08,27,15,05,26.50
2014,08,27,15,06,26.60
2014,08,27,15,07,26.70
2014,08,27,15,08,26.80
2014,08,27,15,09,26.90
2014,08,27,15,10,27.00
2014,08,27,15,11,27.10
2014,08,27,15,12,27.20
2014,08,27,15,13,27.30
2014,08,27,15,14,27.30
2014,08,27,15,15,27.30
2014,08,27,15,16,27.30
2014,08,27,15,17,27.30
2014,08,27,15,18,27.20
2014,08,27,15,19,27.10
2014,08,27,15,20,27.00
2014,08,27,15,21,27.00
2014,08,27,15,22,26.90
2014,08,27,15,23,26.90
2014,08,27,15,24,27.00
2014,08,27,15,25,27.00
2014,08,27,15,26,27.10
2014,08,27,15,27,27.10
2014,08,27,15,28,27.10
2014,08,27,15,29,27.20
2014,08,27,15,30,27.20
2014,08,27,15,31,27.20
2014,08,27,15,32,27.20
2014,08,27,15,33,27.20
2014,08,27,15,34,27.20
2014,08,27,15,35,27.20
2014,08,27,15,36,27.30
2014,08,27,15,37,27.30
2014,08,27,15,38,27.40
2014,08,27,15,39,27.40
2014,08,27,15,40,27.40
2014,08,27,15,41,27.40
2014,08,27,15,42,27.40
2014,08,27,15,43,27.40
2014,08,27,15,44,27.40
2014,08,27,15,45,27.30
2014,08,27,15,46,27.20
2014,08,27,15,47,27.10
2014,08,27,15,48,27.00
2014,08,27,15,49,26.90
2014,08,27,15,50,26.90
2014,08,27,15,51,26.90
2014,08,27,15,52,26.80
2014,08,27,15,53,26.70
2014,08,27,15,54,26.60
2014,08,27,15,55,26.60
2014,08,27,15,56,26.50
2014,08,27,15,57,26.50
2014,08,27,15,58,26.40
2014,08,27,15,59,26.50
2014,08,27,16,00,26.60
2014,08,27,16,01,26.60
2014,08,27,16,02,26.70
2014,08,27,16,03,26.80
2014,08,27,16,04,26.90
2014,08,27,16,05,26.90
2014,08,27,16,06,27.00
2014,08,27,16,07,27.10
2014,08,27,16,08,27.20
2014,08,27,16,09,27.30
2014,08,27,16,10,27.30
2014,08,27,16,11,27.40
2014,08,27,16,12,27.50
2014,08,27,16,13,27.50
2014,08,27,16,14,27.50
2014,08,27,16,15,27.50
2014,08,27,16,16,27.50
2014,08,27,16,17,27.60
2014,08,27,16,18,27.60
2014,08,27,16,19,27.70
2014,08,27,16,20,27.70
2014,08,27,16,21,27.80
2014,08,27,16,22,27.80
2014,08,27,16,23,27.80
2014,08,27,16,24,27.70
2014,08,27,16,25,27.50
2014,08,27,16,26,27.40
2014,08,27,16,27,27.20
2014,08,27,16,28,27.20
2014,08,27,16,29,27.10
2014,08,27,16,30,27.10
2014,08,27,16,31,27.10
2014,08,27,16,32,27.20
2014,08,27,16,33,27.20
2014,08,27,16,34,27.30
2014,08,27,16,35,27.30
2014,08,27,16,36,27.30
2014,08,27,16,37,27.30
2014,08,27,16,38,27.40
2014,08,27,16,39,27.50
2014,08,27,16,40,27.50
2014,08,27,16,41,27.60
2014,08,27,16,42,27.60
2014,08,27,16,43,27.70
2014,08,27,16,44,27.70
2014,08,27,16,45,27.60
2014,08,27,16,46,27.60
2014,08,27,16,47,27.60
2014,08,27,16,48,27.60
2014,08,27,16,49,27.70
2014,08,27,16,50,27.70
2014,08,27,16,51,27.70
2014,08,27,16,52,27.70
2014,08,27,16,53,27.70
2014,08,27,16,54,27.70
2014,08,27,16,55,27.70
2014,08,27,16,56,27.70
2014,08,27,16,57,27.80
2014,08,27,16,58,27.80
2014,08,27,16,59,27.90
2014,08,27,17,00,27.90
2014,08,27,17,01,28.00
2014,08,27,17,02,28.10
2014,08,27,17,03,28.20
2014,08,27,17,04,28.20
2014,08,27,17,05,28.20
2014,08,27,17,06,28.30
2014,08,27,17,07,28.30
2014,08,27,17,08,28.30
2014,08,27,17,09,28.30
2014,08,27,17,10,28.30
2014,08,27,17,11,28.30
2014,08,27,17,12,28.30
2014,08,27,17,13,28.30
2014,08,27,17,14,28.40
2014,08,27,17,15,28.40
2014,08,27,17,16,28.40
2014,08,27,17,17,28.30
2014,08,27,17,18,28.30
2014,08,27,17,19,28.30